Find Kuiper-00077

NORAD ID: 64824 Int'l Des: 2025-151 Owner: KUIP Country: US Constellation: kuiper operational
LEOCIRCULAR

Live-Position

3D-Globus wird geladen...

Über Kuiper-00077

Beschreibung wird geladen...

Nächste Überflüge

Passes for default location (London). Set your location on the main map for personalized predictions.

Höhenverlauf

Loading altitude history...

Zweizeiliger Elementsatz

1 64824U 25151J 26107.32235839 .00001757 00000-0 25962-3 0 9996
2 64824 51.9013 127.2705 0000664 63.0707 297.0323 14.79903326 41069
Epoch: 17. Apr. 2026 • Age: 12 hours

Aktueller Status

Höhe 631.1 km
Geschwindigkeit 7.54 km/s
Subsatellitenpunkt -3.18°S, 162.91°E
Startdatum 16. Juli 2025
Alter 0.7 years
Typ internet

Technische Details

Klassifizierung Payload
Masse 490.00 kg
Trockenmasse 490.00 kg
Gesamtmasse 490.00 kg
Länge 1.80 m
Durchmesser 0.70 m
Spannweite 5.00 m
Form Box + 2 pan
Hersteller KUIP
Bus-Typ Kuiper
Phasenstatus In Orbit
Besitzer/Staat KUIP/US

Most Searched